This demonstration page uses our WeatherBlox Daily Observations layout. Learn more.

Left ArrowRight Arrow

39.92423, -83.80882

Hourly Observations for January 11, 2019

Temp ( °F °C ) Dew Point ( °F °C ) Humidity (%) Winds ( mph kmh ) Pressure ( in mb ) Visibility ( mi km ) Precip ( " mm )
12:56 am 00:56 Cloudy 25 -3.9 19 -7.2 78 78 N 6 9 30.37 1029 10 16 N/A
1:56 am 01:56 Cloudy 25 -3.9 19 -7.2 78 78 NNW 7 11 30.40 1029 10 16 N/A
2:56 am 02:56 Cloudy 25 -3.9 19 -7.2 78 78 N 3 6 30.39 1029 10 16 N/A
3:56 am 03:56 Cloudy 25 -3.9 19 -7.2 78 78 NNE 5 7 30.38 1029 10 16 N/A
4:56 am 04:56 Cloudy 25 -3.9 19 -7.2 78 78 N 5 7 30.39 1029 10 16 N/A
5:56 am 05:56 Cloudy 25 -3.9 19 -7.2 78 78 N N/A 30.41 1030 10 16 N/A
6:56 am 06:56 Cloudy 25 -3.9 19 -7.2 78 78 N N/A 30.42 1030 10 16 N/A
7:56 am 07:56 Cloudy 25 -3.9 19 -7.2 78 78 N N/A 30.43 1030 10 16 N/A
8:56 am 08:56 Cloudy 25 -3.9 19 -7.2 78 78 N N/A 30.45 1031 10 16 N/A
9:56 am 09:56 Cloudy 25 -3.9 19 -7.2 78 78 N N/A 30.47 1032 10 16 N/A
10:56 am 10:56 Cloudy 25 -3.9 19 -7.2 78 78 N N/A 30.46 1032 10 16 N/A
11:56 am 11:56 Cloudy 26 -3.3 19 -7.2 75 75 N N/A 30.45 1031 10 16 N/A
12:56 pm 12:56 Cloudy 27 -2.8 20 -6.7 75 75 E 5 7 30.42 1030 10 16 N/A
1:56 pm 13:56 Cloudy 27 -2.8 20 -6.7 75 75 E 8 13 30.40 1030 10 16 N/A
2:56 pm 14:56 Cloudy 28 -2.2 20 -6.7 72 72 ESE 9 15 30.39 1029 10 16 N/A
3:42 pm 15:42 Partly Cloudy 27 -3 19 -7 74 74 E 10 17 30.42 1030 10 16 N/A
3:56 pm 15:56 Mostly Sunny 28 -2.2 21 -6.1 75 75 ESE 8 13 30.40 1029 10 16 N/A
4:56 pm 16:56 Partly Cloudy 27 -2.8 21 -6.1 78 78 ESE 9 15 30.39 1029 10 16 N/A
5:56 pm 17:56 Clear 25 -3.9 20 -6.7 81 81 ESE 6 9 30.40 1030 10 16 N/A
6:56 pm 18:56 Clear 24 -4.4 20 -6.7 84 84 E 6 9 30.39 1029 10 16 N/A
7:56 pm 19:56 Clear 24 -4.4 21 -6.1 88 88 E 6 9 30.40 1030 10 16 N/A
8:56 pm 20:56 Clear 25 -3.9 21 -6.1 85 85 E 6 9 30.39 1029 10 16 N/A
9:56 pm 21:56 Clear 25 -3.9 21 -6.1 85 85 E 6 9 30.39 1029 10 16 N/A
10:56 pm 22:56 Clear 26 -3.3 22 -5.6 84 84 ESE 8 13 30.39 1029 10 16 N/A
11:56 pm 23:56 Clear 26 -3.3 22 -5.6 84 84 ESE 7 11 30.38 1029 10 16 N/A

Powered by AerisWeather